Location: Franzen
(48.6167°N, 15.3833°E)
Time: 00:15:19
(UTC+00:00)

Cosmos 2219 - Pass Details

Date: 31 July 2021
Orbit: 834 x 859 km, 71.1° (Epoch: 22 September)

Event Time Altitude Azimuth Distance (km) Brightness Sun altitude
Exits shadow 01:51:48 - 275° (W) 3,316 5.9 -13.5°
Reaches altitude 10° 01:55:13 10° 298° (WNW) 2,501 5.5 -13.2°
Maximum altitude 01:58:07 14° 329° (NNW) 2,231 5.6 -12.8°
Drops below altitude 10° 02:01:02 10° 360° (N) 2,507 6.4 -12.5°
Sets 02:04:53 0° 25° (NNE) 3,446 7.9 -12.1°
